Location: LDNL
(36.4545°S, 141.6685°E)
Time: 22:06:44
(UTC+11:00)

Courier 1B Rocket - Pass Details

Date: 06 February 2023
Orbit: 920 x 1202 km, 28.2° (Epoch: 26 March)

Event Time Altitude Azimuth Distance (km) Brightness Sun altitude
Rises 10:43:35 0° 276° (W) 4,102 7.8 44.4°
Reaches altitude 10° 10:47:29 10° 292° (WNW) 3,115 7.4 45.2°
Maximum altitude 10:52:25 18° 332° (NNW) 2,501 7.3 46.1°
Drops below altitude 10° 10:57:13 10° 13° (NNE) 3,011 8.0 47.0°
Sets 11:00:55 0° 30° (NNE) 3,914 8.6 47.7°
